Starlink 3665

operational
NORAD ID: 52098 Int'l Des: 2022-029 Owner: SPXS Country: US Constellation: starlink
LEOCIRCULAR

Über Starlink 3665

Beschreibung wird geladen...

Live-Position

3D-Globus wird geladen...

Nächste Überflüge

Höhenverlauf

Altitude vs Time

uPlot chart will show altitude changes over time

Zweizeiliger Elementsatz

1 52098U 22029L 25304.30274508 -.00000320 00000-0 -19902-5 0 9995
2 52098 53.2186 309.9588 0001542 96.9469 263.1698 15.08838222201128
Epoch: 31. Okt. 2025 • Age: 33 hours

Aktueller Status

Höhe 550.4 km
Geschwindigkeit 7.59 km/s
Subsatellitenpunkt -31.77°S, 11.94°W
Startdatum 19. März 2022
Alter 3.6 years
Typ internet

Technische Details

Klassifizierung Payload
Masse 297.00 kg
Trockenmasse 275.00 kg
Gesamtmasse 297.00 kg
Länge 0.20 m
Durchmesser 2.80 m
Spannweite 9.00 m
Form Box + pan
Hersteller SPXS
Bus-Typ Starlink
Phasenstatus In Orbit
Besitzer/Staat SPXS/US

Große Konstellationen

Loading constellations...